Location: Unspecified
(50.7693°N, 0.0000°E)
Time: 10:02:22
(UTC+00:00)

Transit 4A - Pass Details

Date: 27 June 2019
Orbit: 866 x 978 km, 66.8° (Epoch: 16 October)

Event Time Altitude Azimuth Distance (km) Brightness Sun altitude
Rises 06:15:35 0° 181° (S) 3,607 10.8 19.8°
Reaches altitude 10° 06:18:20 10° 172° (S) 2,681 10.3 20.2°
Maximum altitude 06:23:49 33° 111° (ESE) 1,583 10.4 21.1°
Drops below altitude 10° 06:29:23 10° 51° (NE) 2,734 11.6 21.9°
Sets 06:32:12 0° 42° (NE) 3,689 11.8 22.4°
